DW8248 Weather Reports


time (UTC)temp
F
wind
direction
speed
knots
gust
knots
rain 1hr
in
rain 24hr
in
rain mn
in
humidity
%
barometer
mb
20260504031400 75 18 6.1 13.9 0.00 0.03 0.03 69 1016.4
20260504025251 75 94 5.2 13.0 0.00 0.03 0.03 69 1016.4
20260504024302 75 81 6.1 12.2 0.00 0.03 0.03 70 1016.3
20260504023259 75 59 6.1 12.2 0.00 0.03 0.03 70 1016.2
20260504022318 75 35 5.2 12.2 0.00 0.03 0.03 69 1016.2
20260504021322 75 68 6.1 12.2 0.00 0.03 0.03 69 1016.4
20260504020327 75 98 5.2 15.6 0.00 0.03 0.03 69 1016.3
20260504015251 75 41 7.0 15.6 0.00 0.03 0.03 69 1016.2
20260504014255 75 73 6.1 13.9 0.00 0.03 0.03 68 1016.1
20260504013241 75 38 6.1 13.9 0.00 0.03 0.03 68 1016.0
20260504012301 75 82 4.3 13.0 0.00 0.03 0.03 69 1015.9
20260504011313 75 74 5.2 12.2 0.00 0.03 0.03 69 1015.9
20260504005150 75 74 6.1 15.6 0.00 0.03 0.03 70 1015.8
20260504004136 75 80 7.0 15.6 0.00 0.03 0.03 70 1015.7
20260504002000 75 71 6.1 12.2 0.00 0.03 0.03 70 1015.6
20260503234723 74 55 5.2 11.3 0.00 0.03 0.03 71 1015.4
20260503232542 75 70 7.0 13.0 0.00 0.03 0.03 70 1015.3
20260503230416 75 53 7.0 14.8 0.00 0.03 0.03 71 1015.1
20260503225354 75 22 7.0 14.8 0.00 0.03 0.03 71 1015.1
20260503222131 75 49 6.1 11.3 0.00 0.03 0.03 70 1015.3
20260503221058 75 30 5.2 13.0 0.00 0.03 0.03 69 1015.4
20260503220114 75 22 6.1 13.0 0.00 0.03 0.03 69 1015.3
20260503215116 75 69 5.2 10.4 0.00 0.03 0.03 68 1015.2
20260503214107 75 26 5.2 12.2 0.00 0.03 0.03 68 1015.4
20260503213129 76 42 6.1 12.2 0.00 0.03 0.03 67 1015.2
20260503212108 76 51 6.1 12.2 0.00 0.03 0.03 67 1015.2
20260503211125 76 27 6.1 13.0 0.00 0.03 0.03 69 1015.3
20260503210126 76 55 6.1 13.0 0.00 0.03 0.03 68 1015.3
20260503205131 76 46 5.2 12.2 0.00 0.03 0.03 69 1015.4
20260503204113 75 26 7.0 13.9 0.00 0.03 0.03 69 1015.6
20260503203131 75 43 7.0 13.9 0.00 0.03 0.03 69 1015.6
20260503200950 75 32 5.2 13.9 0.00 0.03 0.03 68 1015.5
20260503195942 75 38 5.2 13.0 0.00 0.03 0.03 70 1015.5
20260503194915 75 59 6.1 13.0 0.00 0.03 0.03 69 1015.5
20260503193849 75 45 5.2 12.2 0.00 0.03 0.03 69 1015.6
20260503192815 75 48 5.2 10.4 0.00 0.03 0.03 69 1015.8
20260503191738 75 65 5.2 10.4 0.00 0.03 0.03 69 1015.9
20260503190705 75 32 5.2 11.3 0.00 0.03 0.03 69 1016.2
20260503185711 75 27 6.1 12.2 0.00 0.03 0.03 70 1016.3
20260503183534 75 18 7.8 13.0 0.00 0.03 0.03 70 1016.7
20260503182529 75 44 6.1 12.2 0.00 0.03 0.03 70 1016.9
20260503181459 74 31 5.2 11.3 0.00 0.03 0.03 69 1016.8
20260503180444 74 65 5.2 11.3 0.00 0.03 0.03 70 1017.1
20260503173217 74 355 6.1 14.8 0.00 0.03 0.03 69 1017.1
20260503172212 74 17 6.1 14.8 0.00 0.03 0.03 70 1017.0
20260503171216 74 49 6.1 11.3 0.00 0.03 0.03 69 1016.9
20260503170220 74 46 7.0 12.2 0.00 0.03 0.03 69 1017.0
20260503130629 73 31 9.6 16.5 0.00 0.02 0.02 73 1015.8
20260503110423 69 41 7.0 12.2 0.00 0.02 0.02 84 1014.9
20260503090233 70 330 6.1 9.6 0.08 0.02 0.02 83 1014.0
20260503072812 70 344 7.8 13.0 0.00 0.00 0.00 84 1013.5
20260503071822 71 343 8.7 13.9 0.00 0.00 0.00 84 1013.3
20260503070835 71 342 7.8 14.8 0.00 0.00 0.00 84 1013.4
20260503054348 74 290 10.4 12.2 0.00 0.00 0.00 80 1013.6
20260503053342 74 275 10.4 13.9 0.00 0.00 0.00 80 1013.5
20260503052321 74 281 10.4 13.9 0.00 0.00 0.00 79 1013.5
20260503051334 75 281 9.6 12.2 0.00 0.00 0.00 78 1013.6
20260503050324 75 281 9.6 13.0 0.00 0.00 0.00 77 1013.6
20260503045331 75 284 10.4 13.9 0.00 0.00 0.00 77 1013.3
20260503044344 75 265 11.3 13.9 0.00 0.00 0.00 77 1013.4
20260503043351 75 263 10.4 13.0 0.00 0.00 0.00 78 1013.2
20260503042404 75 272 9.6 13.0 0.00 0.00 0.00 79 1012.9
20260503041402 75 267 9.6 12.2 0.00 0.00 0.00 80 1013.1
20260503035254 75 272 10.4 13.9 0.00 0.00 0.00 80 1013.3
20260503034231 75 270 10.4 13.9 0.00 0.00 0.00 79 1013.0
20260503032133 75 283 10.4 13.9 0.00 0.00 0.00 78 1012.7